Regional Weather Roundup
Issued by NWS Wakefield, VA

Home | Current Version | Previous Version | Graphics & Text | Print | Product List | Glossary On
Versions: 1 2 3 4 5 6 7 8 9 10 11 12 13 14 15 16 17 18 19 20 21 22 23 24 25 26 27 28 29 30 31 32 33 34 35 36 37 38 39 40 41 42 43 44 45 46 47 48
000
ASUS41 KAKQ 271910
RWRAKQ

REGIONAL WEATHER ROUNDUP
NATIONAL WEATHER SERVICE WAKEFIELD VA
200 PM EST SAT DEC 27 2014

Note: "fair" indicates few or no clouds below 12,000 feet with no
significant weather and/or obstructions to visibility. * = Denotes
station may not report precipitation (e.g., rain,snow,etc.),
thunder or fog.

VAZ042-051-052>054-056-272000-
NORTHERN VIRGINIA

CITY           SKY/WX    TMP DP  RH WIND       PRES   REMARKS
WASH NATIONAL  CLOUDY    57  36  45 CALM      30.21F
DULLES         PTSUNNY   58  26  29 CALM      30.21S
FORT BELVOIR   MOSUNNY   57  35  44 S3        30.22S
QUANTICO       MOSUNNY   46  36  68 S3        30.23S
FREDERICKSBRG* MOSUNNY   58  37  44 CALM      30.20F
STAFFORD*      MOSUNNY   56  34  43 CALM      30.25F
WARRENTON      MOSUNNY   58  39  49 CALM      30.21S
CULPEPER*      MOSUNNY   59  30  33 CALM      30.21F
MANASSAS*      NOT AVBL
LEESBURG*      SUNNY     59  32  36 CALM      30.21S
WINCHESTER     SUNNY     59  23  25 S3        30.18F
FRONT ROYAL*   PTCLDY    57  28  33 CALM      30.17F
LURAY*         PTCLDY    63  32  31 SE3       30.17F
$$

VAZ048-049-060>072-079>083-272000-
CENTRAL AND SOUTH CENTRAL VIRGINIA

CITY           SKY/WX    TMP DP  RH WIND       PRES   REMARKS
RICHMOND       PTSUNNY   63  36  36 S7        30.19F
CHESTERFIELD*  CLEAR     63  34  34 SW3       30.20F
PETERSBURG*    SUNNY     64  32  30 S6        30.19F
HANOVER        SUNNY     62  33  33 S3        30.21F
TAPPAHANNOCK*  SUNNY     64  26  24 SW6       30.21S
QUINTON*       CLEAR     62  35  36 W6        30.20F
CHARLOTTSVILLE MOSUNNY   63  27  25 CALM      30.16F
GORDONSVILLE*  PTCLDY    62  32  32 CALM      30.17F
ORANGE*        MOSUNNY   61  37  41 N5        30.21F
LOUISA*        MOSUNNY   63  32  31 CALM      30.17F
BUMPASS*       PTCLDY    60  33  35 N7        30.19F
FARMVILLE*     SUNNY     68  35  28 SE6       30.18S
CREWE*         CLEAR     62  35  36 S6        30.20F
FORT PICKETT*  CLEAR     62  36  37 S6        30.20F
CHASE CITY*    CLEAR     63  39  41 CALM      30.20S
CLARKSVILLE*   CLEAR     61  37  41 S5        30.20S
SOUTH HILL*    SUNNY     61  34  36 SW7       30.27S
LAWRENCEVILLE* CLEAR     61  37  40 S5        30.20F
EMPORIA*       SUNNY     61  37  41 S6        30.23F
$$

VAZ088>098-272000-
SOUTHEAST VIRGINIA

CITY           SKY/WX    TMP DP  RH WIND       PRES   REMARKS
NORFOLK        SUNNY     61  35  37 SW10      30.22F
VIRGINIA BEACH MOSUNNY   61  37  41 S9        30.22F
NORFOLK NAVAL  MOSUNNY   64  36  35 SW8       30.23F
WEST POINT*    SUNNY     65  31  27 S7        30.22F
SALUDA*        FAIR      62  32  32 SW6       30.20R
NEWPORT NEWS   SUNNY     63  36  36 SW10      30.22F
LANGLEY AFB    SUNNY     60  37  42 SW9       30.22F
FORT EUSTIS    SUNNY     60  60  97 S8        30.20F
WILLIAMSBURG*  SUNNY     64  39  39 S7        30.22F
HR EXEC AP*    CLEAR     63  37  39 S6        30.25F
FRANKLIN*      SUNNY     61  36  39 S8        30.21F
WAKEFIELD      SUNNY     61  37  41 S8        30.21F
$$

VAZ020-022-025-037-045-272000-
WEST CENTRAL AND SOUTHWEST VIRGINIA

CITY           SKY/WX    TMP DP  RH WIND       PRES   REMARKS
STAUNTON*      MOSUNNY   62  27  26 CALM      30.18F
WAYNESBORO*    PTCLDY    61  16  17 SW3       30.17F
HOT SPRINGS VA PTSUNNY   52  11  19 W10       30.18F
LYNCHBURG      SUNNY     63  22  20 VRB3      30.20F
DANVILLE       SUNNY     63  35  35 SW7       30.21F
SOUTH BOSTON*  CLEAR     63  33  31 S5        30.20F
MARTINSVILLE   SUNNY     66  34  30 S3        30.22F
ROANOKE        MOSUNNY   63  22  20 S3        30.20F
BLACKSBURG     MOSUNNY   58  18  20 W3        30.22F
DUBLIN*        MOSUNNY   63  20  19 CALM      30.20F
MARION*        PTSUNNY   63   5  10 W13G18    30.23S
HILLSVILLE*    SUNNY     63  16  16 SW3       30.21F
RICHLANDS*     MOCLDY    57  14  18 W5        30.21F
WISE*          PTSUNNY   59  12  15 SW16      30.21F
ABINGDON*      CLOUDY    59  28  30 SW6       30.22F
$$

MDZ021>025-VAZ099-100-272000-
SOUTHERN MARYLAND AND THE DELMARVA PENINSULA

CITY           SKY/WX    TMP DP  RH WIND       PRES   REMARKS
PATUXENT RIVER PTSUNNY   51  37  58 E5        30.21F
BAY BRIDGE APT   N/A     46  36  66 W3        30.22R
LEONARDTOWN    SUNNY     55  37  50 CALM      30.22S
DOVER          SUNNY     52  42  67 E7        30.18F
GEORGETOWN     SUNNY     60  35  39 CALM      30.19F
EASTON         NOT AVBL
CAMBRIDGE      SUNNY     57  37  47 NW3       30.20S
SALISBURY      SUNNY     64  30  27 SW6       30.19F
OCEAN CITY     SUNNY     52  42  69 S6        30.20F
WALLOPS ISLAND SUNNY     53  43  68 S12       30.21F
ACCOMACK*      SUNNY     59  39  47 S6        30.22R
$$

NCZ012>017-030>032-272000-
NORTH CENTRAL AND EASTERN NORTH CAROLINA

CITY           SKY/WX    TMP DP  RH WIND       PRES   REMARKS
ROANOKE RAPIDS CLEAR     59  36  41 CALM      30.22F
RALEIGH        MOSUNNY   61  38  42 SW9       30.25S
ELIZABETH CITY SUNNY     61  36  39 S7        30.24F
AHOSKIE*       SUNNY     60  36  41 S7        30.22F
EDENTON*       SUNNY     60  39  45 S6        30.24F
CURRITUCK*     SUNNY     60  33  36 SW6       30.25F
KILL DEVIL HLS SUNNY     57  40  52 SE3       30.24F
MANTEO         SUNNY     55  43  62 S5        30.25F
CAPE HATTERAS  SUNNY     54  41  61 NW7       30.27F
TARBORO*       CLEAR     61  37  41 SW7       30.24F
GOLDSBORO      SUNNY     61  42  48 VRB7      30.23F
WASHINGTON     SUNNY     59  39  46 S3        30.25F
GREENVILLE     SUNNY     61  36  39 SW7       30.26S
NEW BERN       SUNNY     62  40  44 E6        30.26F
WILMINGTON     SUNNY     64  43  46 SE6       30.25F
$$

VAZ048-272000-
ELSEWHERE

CITY           SKY/WX    TMP DP  RH WIND       PRES   REMARKS
HARRISBURG PA  MOSUNNY   53  34  48 SE3       30.16F
BALTIMORE      PTSUNNY   57  30  35 E3        30.19F
ANNAPOLIS      MOSUNNY   47  36  65 SE6       30.22F
ANDREWS AFB    MOSUNNY   57  31  37 NE3       30.20S
PHILADELPHIA   MOSUNNY   56  32  40 CALM      30.20F
HENDERSON NC   SUNNY     61  33  35 SW6       30.22S
GREENSBORO     MOSUNNY   61  34  36 S9        30.22S
ROCKY MOUNT    SUNNY     60  37  42 S8        30.23F
$$

VAZ100-272000-
MARINE

STATION/POSITION TIME  TEMP    WIND        PRES    WAVE   SWELL
                       AIR SEA DIR/SP/G            HT/PER HT/PER
                 (UTC) (F)     (DEG/KT/KT) (MB)    (FT/S) (FT/S)
CAPE MAY NJ      1900   47 46  260/  3/  3 1022.6F
LEWES DE         1900   49 44   90/  7/  8 1022.6F
15NM E FENWICK I 1900   47 46              1022.6F   3/15
OCEAN-CITY-INLET 1900   49 45  180/  5/  6 1022.3F
WACHAPREAGUE VA  1900   51 47  180/  8/ 10 1022.9F
THOMAS POINT MD  1900   46 43  210/  2/  2 1024.3F
GOOSES REEF MD   1900   46     VRB  4/  4  1022.3R
COVE POINT MD    1900   50     270/  1/  2 1022.9F
SOLOMONS ISLAND  1900      44                N/A
BISHOPS HEAD MD  1900   47 47  180/  4/  5 1022.3R
PINEY POINT MD   1900          290/  4/  4   N/A
POTOMAC MD       1900   45     130/  4/  6 1022.1R
CAMBRIDGE MD     1900   50 42  330/  3/  5 1022.5S
LEWISETTA VA     1900   46 45   30/  4/  5 1022.8R
RAPPAHANNOCK LGT 1900          180/ 13/ 14 1023.8R
STINGRAY PT      1900   48     170/ 10/ 12 1023.5R
YORK RVR RNG VA  1900   55     220/ 10/ 11 1022.4F
YORKTOWN VA      1900   59 46  200/  9/ 12 1022.8F
JAMESTOWN VA     1900   57     230/  6/  8   N/A
DOMINION TERM VA 1900   54     220/  8/  9 1023.4F
KIPTOPEKE VA     1900      51  180/  8/ 10   N/A
CHES BAY BRIDGE  1900   56 46  200/  7/  8 1023.1R
CAPE HENRY VA    1900   60     200/  5/  9 1022.1F
CHESAPEAKE LGHT  1800   48     190/ 12/ 12 1024.7F
WILLOUBY STN VA  1900   56     240/  6/  7 1023.8F
S CRANEY ISL VA  1900          180/  4/  6 1023.2F
CAPE HENRY BUOY  1900      49                N/A     2/17   2/17
1ST LANDING BUOY 1900   51     130/  6/  6 1023.1F
CAPE CHARLES BUO 1900      48                N/A     2/17   2/17
64NM E OF VA BCH 1900   52 53  200/  8/  8 1024.0F   3/16   3/16
DUCK PIER NC     1900   55 48  190/  6/  6 1023.6F
44100 DUCK FRF   1900      51                N/A     2/15   2/15
44056 DUCK FRF   1900      50                N/A     2/17   2/17
OREGON INLET NC  1900   53 53  190/  4/  5 1024.6F
HATTERAS NC      1900   52 53  320/  5/  6 1025.4S
DIAMOND SHLS NC  1900   61                 1024.9F   3/16
CAPE LOOKOUT NC  1800   58     320/  1/  2 1025.6F
$$


USA.gov is the U.S. government's official web portal to all federal, state and local government web resources and services.